Location: Newark
(48.4317°S, 179.1125°W)
Time: 06:41:51
(UTC+00:00)

N. Korean satellite - Pass Details

Date: 28 January 2020
Orbit: 456 x 505 km, 97.2° (Epoch: 18 February)

Event Time Altitude Azimuth Distance (km) Brightness Sun altitude
Rises 15:51:16 0° 48° (NE) 2,617 10.4 -7.1°
Reaches altitude 10° 15:53:41 10° 63° (ENE) 1,739 9.7 -6.8°
Maximum altitude 15:56:36 22° 114° (ESE) 1,164 9.7 -6.4°
Drops below altitude 10° 15:59:33 10° 165° (SSE) 1,749 10.2 -6.0°
Sets 16:01:59 0° 180° (S) 2,637 10.8 -5.7°
